When you browse on this site, cookies collect data to enhance your experience and personalize the content and advertising you see.
Visit our Privacy Policy to learn more. By continuing to use the site, you agree to this use of cookies and data.

Météo par heure à Sumqayit

Ce jour, 7 Juillet, Mardi

Heure Température Précipitation Vent Pression Humidité
00:00 +27°C° 0 mm 0 m/s 734 mmHg 30%
01:00 +26°C° 0 mm 0 m/s 734 mmHg 32%
02:00 +25°C° 0 mm 0 m/s 733 mmHg 33%
03:00 +25°C° 0 mm 0 m/s 733 mmHg 34%
04:00 +26°C° 0 mm 0 m/s 734 mmHg 32%
05:00 +27°C° 0 mm 0 m/s 734 mmHg 29%
06:00 +31°C° 0 mm 1 m/s 734 mmHg 26%
07:00 +32°C° 0 mm 1 m/s 734 mmHg 23%
08:00 +34°C° 0 mm 1 m/s 734 mmHg 19%
09:00 +36°C° 0 mm 2 m/s 734 mmHg 16%
10:00 +37°C° 0 mm 3 m/s 734 mmHg 15%
11:00 +38°C° 0 mm 4 m/s 734 mmHg 14%
12:00 +40°C° 0 mm 5 m/s 734 mmHg 14%
13:00 +39°C° 0 mm 5 m/s 734 mmHg 14%
14:00 +39°C° 0 mm 5 m/s 734 mmHg 15%
15:00 +39°C° 0 mm 6 m/s 734 mmHg 15%
16:00 +37°C° 0 mm 5 m/s 733 mmHg 16%
17:00 +36°C° 0 mm 4 m/s 733 mmHg 17%
18:00 +35°C° 0 mm 3 m/s 733 mmHg 18%
19:00 +34°C° 0 mm 2 m/s 733 mmHg 21%
20:00 +32°C° 0 mm 1 m/s 733 mmHg 23%
21:00 +28°C° 0 mm 0 m/s 734 mmHg 26%
22:00 +28°C° 0 mm 0 m/s 733 mmHg 27%
23:00 +29°C° 0 mm 1 m/s 733 mmHg 28%

Demain, 8 Juillet, Mercredi

Heure Température Précipitation Vent Pression Humidité
00:00 +28°C° 0 mm 1 m/s 733 mmHg 28%
01:00 +28°C° 0 mm 1 m/s 733 mmHg 30%
02:00 +25°C° 0 mm 0 m/s 733 mmHg 31%
03:00 +24°C° 0 mm 0 m/s 733 mmHg 32%
04:00 +26°C° 0 mm 0 m/s 733 mmHg 30%
05:00 +27°C° 0 mm 0 m/s 733 mmHg 28%
06:00 +30°C° 0 mm 1 m/s 733 mmHg 25%
07:00 +32°C° 0 mm 1 m/s 733 mmHg 22%
08:00 +34°C° 0 mm 2 m/s 734 mmHg 20%
09:00 +36°C° 0 mm 3 m/s 734 mmHg 17%
10:00 +36°C° 0 mm 4 m/s 734 mmHg 16%
11:00 +37°C° 0 mm 4 m/s 733 mmHg 16%
12:00 +39°C° 0 mm 5 m/s 733 mmHg 15%
13:00 +39°C° 0 mm 5 m/s 733 mmHg 15%
14:00 +39°C° 0 mm 5 m/s 733 mmHg 15%
15:00 +39°C° 0 mm 6 m/s 732 mmHg 16%
16:00 +37°C° 0 mm 5 m/s 732 mmHg 17%
17:00 +36°C° 0 mm 5 m/s 732 mmHg 19%
18:00 +35°C° 0 mm 5 m/s 732 mmHg 20%
19:00 +33°C° 0 mm 3 m/s 732 mmHg 23%
20:00 +31°C° 0 mm 2 m/s 732 mmHg 26%
21:00 +30°C° 0 mm 1 m/s 733 mmHg 29%
22:00 +30°C° 0 mm 1 m/s 733 mmHg 27%
23:00 +30°C° 0 mm 1 m/s 733 mmHg 26%

Après-demain, 9 Juillet, Jeudi

Heure Température Précipitation Vent Pression Humidité
00:00 +30°C° 0 mm 1 m/s 733 mmHg 24%
01:00 +29°C° 0 mm 1 m/s 733 mmHg 26%
02:00 +27°C° 0 mm 0 m/s 733 mmHg 28%
03:00 +26°C° 0 mm 0 m/s 733 mmHg 30%
04:00 +29°C° 0 mm 1 m/s 733 mmHg 31%
05:00 +29°C° 0 mm 2 m/s 734 mmHg 32%
06:00 +29°C° 0 mm 3 m/s 734 mmHg 33%
07:00 +32°C° 0 mm 5 m/s 735 mmHg 33%
08:00 +33°C° 0 mm 6 m/s 735 mmHg 33%
09:00 +34°C° 0 mm 7 m/s 735 mmHg 33%
10:00 +34°C° 0 mm 8 m/s 735 mmHg 33%
11:00 +35°C° 0 mm 8 m/s 736 mmHg 33%
12:00 +35°C° 0 mm 9 m/s 736 mmHg 33%
13:00 +36°C° 0 mm 10 m/s 735 mmHg 35%
14:00 +34°C° 0 mm 11 m/s 735 mmHg 37%
15:00 +34°C° 0 mm 13 m/s 735 mmHg 39%
16:00 +33°C° 0 mm 13 m/s 735 mmHg 40%
17:00 +33°C° 0 mm 12 m/s 735 mmHg 41%
18:00 +32°C° 0 mm 12 m/s 735 mmHg 41%
19:00 +32°C° 0 mm 12 m/s 735 mmHg 42%
20:00 +32°C° 0 mm 12 m/s 736 mmHg 42%
21:00 +31°C° 0 mm 11 m/s 736 mmHg 43%
22:00 +31°C° 0 mm 10 m/s 736 mmHg 43%
23:00 +31°C° 0 mm 9 m/s 736 mmHg 43%

10 Juillet, Vendredi

Heure Température Précipitation Vent Pression Humidité
00:00 +31°C° 0 mm 8 m/s 736 mmHg 43%
01:00 +29°C° 0 mm 7 m/s 736 mmHg 45%
02:00 +29°C° 0 mm 5 m/s 737 mmHg 47%
03:00 +28°C° 0 mm 3 m/s 737 mmHg 49%
04:00 +29°C° 0 mm 4 m/s 737 mmHg 48%
05:00 +29°C° 0 mm 5 m/s 737 mmHg 47%
06:00 +30°C° 0 mm 6 m/s 738 mmHg 46%
07:00 +32°C° 0 mm 6 m/s 738 mmHg 44%
08:00 +33°C° 0 mm 7 m/s 738 mmHg 41%
09:00 +34°C° 0 mm 8 m/s 739 mmHg 39%
10:00 +34°C° 0 mm 8 m/s 739 mmHg 38%
11:00 +35°C° 0 mm 9 m/s 739 mmHg 36%
12:00 +35°C° 0 mm 9 m/s 739 mmHg 35%
13:00 +36°C° 0 mm 10 m/s 738 mmHg 35%
14:00 +36°C° 0 mm 11 m/s 738 mmHg 36%
15:00 +34°C° 0 mm 11 m/s 738 mmHg 36%
16:00 +34°C° 0 mm 12 m/s 737 mmHg 38%
17:00 +33°C° 0 mm 12 m/s 737 mmHg 40%
18:00 +32°C° 0 mm 13 m/s 737 mmHg 42%
19:00 +31°C° 0.1 mm 12 m/s 738 mmHg 43%
20:00 +31°C° 0.1 mm 11 m/s 738 mmHg 45%
21:00 +31°C° 0.1 mm 11 m/s 738 mmHg 46%
22:00 +29°C° 0 mm 10 m/s 738 mmHg 46%
23:00 +29°C° 0 mm 9 m/s 738 mmHg 47%

11 Juillet, Samedi

Heure Température Précipitation Vent Pression Humidité
00:00 +29°C° 0 mm 8 m/s 738 mmHg 47%
01:00 +29°C° 0 mm 8 m/s 737 mmHg 47%
02:00 +29°C° 0 mm 7 m/s 737 mmHg 47%
03:00 +29°C° 0 mm 7 m/s 737 mmHg 47%
04:00 +29°C° 0 mm 7 m/s 737 mmHg 48%
05:00 +29°C° 0 mm 6 m/s 737 mmHg 48%
06:00 +29°C° 0 mm 5 m/s 737 mmHg 49%
07:00 +30°C° 0.1 mm 6 m/s 737 mmHg 44%
08:00 +32°C° 0.1 mm 7 m/s 737 mmHg 40%
09:00 +33°C° 0.1 mm 7 m/s 738 mmHg 35%
10:00 +33°C° 0 mm 7 m/s 737 mmHg 35%
11:00 +33°C° 0 mm 8 m/s 737 mmHg 35%
12:00 +33°C° 0 mm 8 m/s 737 mmHg 34%
13:00 +34°C° 0 mm 9 m/s 737 mmHg 34%
14:00 +34°C° 0 mm 10 m/s 737 mmHg 34%
15:00 +34°C° 0 mm 11 m/s 736 mmHg 33%
16:00 +34°C° 0 mm 11 m/s 736 mmHg 33%
17:00 +33°C° 0 mm 11 m/s 736 mmHg 34%
18:00 +33°C° 0 mm 11 m/s 736 mmHg 34%
19:00 +32°C° 0 mm 11 m/s 736 mmHg 36%
20:00 +31°C° 0 mm 11 m/s 736 mmHg 39%
21:00 +29°C° 0 mm 11 m/s 737 mmHg 41%
22:00 +29°C° 0 mm 11 m/s 736 mmHg 43%
23:00 +29°C° 0 mm 10 m/s 736 mmHg 45%

12 Juillet, Dimanche

Heure Température Précipitation Vent Pression Humidité
00:00 +28°C° 0 mm 9 m/s 736 mmHg 46%
01:00 +28°C° 0 mm 8 m/s 736 mmHg 47%
02:00 +28°C° 0 mm 7 m/s 736 mmHg 47%
03:00 +27°C° 0 mm 6 m/s 735 mmHg 48%
04:00 +28°C° 0 mm 6 m/s 735 mmHg 46%
05:00 +28°C° 0 mm 5 m/s 735 mmHg 44%
06:00 +29°C° 0 mm 5 m/s 736 mmHg 43%
07:00 +30°C° 0 mm 6 m/s 736 mmHg 39%
08:00 +32°C° 0 mm 6 m/s 736 mmHg 36%
09:00 +34°C° 0 mm 7 m/s 736 mmHg 32%
10:00 +34°C° 0 mm 8 m/s 736 mmHg 32%
11:00 +34°C° 0 mm 9 m/s 736 mmHg 32%
12:00 +35°C° 0 mm 9 m/s 735 mmHg 32%
13:00 +36°C° 0 mm 10 m/s 735 mmHg 32%
14:00 +36°C° 0 mm 10 m/s 735 mmHg 33%
15:00 +36°C° 0 mm 10 m/s 734 mmHg 33%
16:00 +34°C° 0 mm 10 m/s 734 mmHg 34%
17:00 +33°C° 0 mm 10 m/s 734 mmHg 36%
18:00 +33°C° 0 mm 9 m/s 734 mmHg 37%
19:00 +32°C° 0 mm 9 m/s 734 mmHg 39%
20:00 +31°C° 0 mm 9 m/s 734 mmHg 41%
21:00 +31°C° 0 mm 8 m/s 734 mmHg 43%
22:00 +29°C° 0 mm 8 m/s 734 mmHg 43%
23:00 +29°C° 0 mm 7 m/s 734 mmHg 43%
Voir plus